FW0071 Weather Reports


Display with metric or nautical units.
time (UTC)temp
F
wind
direction
speed
MPH
gust
MPH
rain 1hr
in
rain 24hr
in
rain mn
in
humidity
%
barometer
mb
20260507100110 64 152 0.0 0.0 0.00 0.00 0.00 64 1012.3
20260507094601 64 153 0.0 0.0 0.00 0.00 0.00 63 1012.4
20260507093056 63 229 0.0 0.0 0.00 0.00 0.00 67 1012.4
20260507091552 62 169 0.0 0.0 0.00 0.00 0.00 66 1012.5
20260507090056 62 134 0.0 2.0 0.00 0.00 0.00 68 1012.4
20260507084553 61 120 0.0 0.0 0.00 0.00 0.00 71 1012.5
20260507083045 60 117 0.0 0.0 0.00 0.00 0.00 74 1012.5
20260507081539 59 148 0.0 3.0 0.00 0.00 0.00 75 1012.4
20260507080045 58 121 0.0 0.0 0.00 0.00 0.00 75 1012.5
20260507074534 57 115 0.0 0.0 0.00 0.00 0.00 77 1012.5
20260507073039 56 100 0.0 4.0 0.00 0.00 0.00 76 1012.6
20260507071530 56 111 0.0 0.0 0.00 0.00 0.00 78 1012.5
20260507070027 55 126 0.0 3.0 0.00 0.00 0.00 79 1012.4
20260507064526 55 115 0.0 0.0 0.00 0.00 0.00 80 1012.4
20260507063026 54 157 0.0 3.0 0.00 0.00 0.00 81 1012.3
20260507061523 53 136 0.0 3.0 0.00 0.00 0.00 82 1012.4
20260507060023 52 105 0.0 0.0 0.00 0.00 0.00 83 1012.3
20260507054521 51 93 0.0 0.0 0.00 0.00 0.00 85 1012.2
20260507053020 50 157 0.0 0.0 0.00 0.00 0.00 85 1012.1
20260507051518 50 159 0.0 0.0 0.00 0.00 0.00 84 1012.0
20260507050036 50 146 0.0 0.0 0.00 0.00 0.00 84 1011.8
20260507044515 51 111 0.0 0.0 0.00 0.00 0.00 84 1011.6
20260507043014 51 111 0.0 0.0 0.00 0.00 0.00 83 1011.8
20260507041514 51 130 0.0 0.0 0.00 0.00 0.00 83 1011.7
20260507040013 51 110 0.0 0.0 0.00 0.00 0.00 83 1011.7
20260507034512 51 115 0.0 0.0 0.00 0.00 0.00 83 1011.7
20260507033012 51 101 0.0 0.0 0.00 0.00 0.00 83 1011.7
20260507031510 51 107 0.0 0.0 0.00 0.00 0.00 82 1011.6
20260507030011 51 108 0.0 0.0 0.00 0.00 0.00 81 1011.7
20260507024509 51 99 0.0 0.0 0.00 0.00 0.00 80 1011.6
20260507023009 51 101 0.0 0.0 0.00 0.00 0.00 80 1011.6
20260507021508 52 111 0.0 0.0 0.00 0.00 0.00 80 1011.5
20260507020007 52 119 0.0 4.0 0.00 0.00 0.00 80 1011.6
20260507014506 52 101 0.0 4.0 0.00 0.00 0.00 81 1011.6
20260507013005 52 86 0.0 0.0 0.00 0.00 0.00 80 1011.6
20260507011608 52 108 0.0 0.0 0.00 0.00 0.00 82 1011.6
20260507010004 51 115 0.0 0.0 0.00 0.00 0.00 82 1011.6
20260507004503 51 154 0.0 0.0 0.00 0.00 0.00 79 1011.7
20260507003100 52 154 0.0 0.0 0.00 0.00 0.00 76 1011.8
20260507001606 52 154 0.0 0.0 0.00 0.00 0.00 75 1011.9
20260507000124 53 154 0.0 0.0 0.00 0.00 0.00 74 1011.9
20260506234618 53 154 0.0 0.0 0.00 0.00 0.00 74 1011.9
20260506233056 53 154 0.0 0.0 0.00 0.00 0.00 74 1011.9
20260506231554 52 161 0.0 0.0 0.00 0.00 0.00 75 1011.7
20260506230101 52 161 0.0 0.0 0.00 0.00 0.00 73 1011.6
20260506224552 52 161 0.0 0.0 0.00 0.00 0.00 72 1011.4
20260506223048 52 161 0.0 0.0 0.00 0.00 0.00 72 1011.3
20260506221555 53 161 0.0 0.0 0.00 0.00 0.00 69 1011.2
20260506220046 54 161 0.0 0.0 0.00 0.00 0.00 68 1011.1
20260506214540 55 161 0.0 0.0 0.00 0.00 0.00 68 1011.1
20260506213045 54 161 0.0 0.0 0.00 0.00 0.00 68 1011.1
20260506211641 54 161 0.0 0.0 0.00 0.00 0.00 69 1011.2
20260506210045 55 161 0.0 0.0 0.00 0.00 0.00 68 1011.1
20260506204538 55 161 0.0 0.0 0.00 0.00 0.00 67 1011.0
20260506203038 56 161 0.0 0.0 0.00 0.00 0.00 66 1010.8
20260506201540 56 161 0.0 0.0 0.00 0.00 0.00 65 1010.5
20260506200037 57 161 0.0 0.0 0.00 0.00 0.00 64 1010.3
20260506194538 58 161 0.0 0.0 0.00 0.00 0.00 62 1010.1
20260506193046 59 161 0.0 0.0 0.00 0.00 0.00 60 1010.0
20260506191535 60 161 0.0 0.0 0.00 0.00 0.00 58 1009.7
20260506190034 61 161 0.0 0.0 0.00 0.00 0.00 56 1009.6
20260506184538 62 244 0.0 0.0 0.00 0.00 0.00 54 1009.5
20260506183033 63 213 0.0 0.0 0.00 0.00 0.00 52 1009.4
20260506181542 64 11 0.0 2.0 0.00 0.00 0.00 51 1009.3
20260506180033 66 111 0.0 0.0 0.00 0.00 0.00 48 1009.2
20260506174536 67 272 0.0 0.0 0.00 0.00 0.00 45 1009.3
20260506173055 68 300 0.0 2.0 0.00 0.00 0.00 45 1009.2
20260506171540 67 236 0.0 1.0 0.00 0.00 0.00 45 1009.1
20260506170047 67 242 0.0 3.0 0.00 0.00 0.00 46 1009.1
20260506164530 68 250 0.0 2.0 0.00 0.00 0.00 43 1009.1
20260506163032 69 86 0.0 4.0 0.00 0.00 0.00 44 1009.2
20260506161528 69 246 0.0 0.0 0.00 0.00 0.00 41 1009.2
20260506160027 70 285 0.0 4.0 0.00 0.00 0.00 42 1009.2
20260506154526 70 286 0.0 0.0 0.00 0.00 0.00 44 1009.4
20260506153025 70 263 0.0 1.0 0.00 0.00 0.00 41 1009.5
20260506151522 70 292 0.0 3.0 0.00 0.00 0.00 40 1009.6
20260506150021 70 241 0.0 0.0 0.00 0.00 0.00 42 1009.6
20260506144519 69 257 0.0 2.0 0.00 0.00 0.00 43 1009.8
20260506143024 70 9 0.0 4.0 0.00 0.00 0.00 43 1010.0
20260506141513 69 171 0.0 0.0 0.00 0.00 0.00 43 1010.1
20260506140018 69 88 0.0 1.0 0.00 0.00 0.00 44 1010.3
20260506134510 69 211 0.0 3.0 0.00 0.00 0.00 45 1010.4
20260506133010 68 262 0.0 8.0 0.00 0.00 0.00 44 1010.5
20260506131510 68 238 0.0 0.0 0.00 0.00 0.00 46 1010.6
20260506130004 67 202 0.0 3.0 0.00 0.00 0.00 47 1010.7
20260506124503 67 210 0.0 1.0 0.00 0.00 0.00 47 1010.7
20260506123002 67 281 0.0 4.0 0.00 0.00 0.00 47 1010.9
20260506121559 66 298 0.0 4.0 0.00 0.00 0.00 49 1010.9
20260506120056 65 239 0.0 3.0 0.00 0.00 0.00 51 1011.0
20260506114603 65 272 0.0 2.0 0.00 0.00 0.00 54 1011.1
20260506113052 64 242 0.0 7.0 0.00 0.00 0.00 55 1011.2
20260506111551 64 264 0.0 7.0 0.00 0.00 0.00 54 1011.3
20260506110049 64 19 0.0 0.0 0.00 0.00 0.00 56 1011.4
20260506104609 64 186 0.0 4.0 0.00 0.00 0.00 56 1011.6
20260506103048 63 306 0.0 2.0 0.00 0.00 0.00 57 1011.7
20260506101548 63 219 0.0 2.0 0.00 0.00 0.00 58 1011.8